Resurs 01 Rocket - Orbit

View from above orbital plane
View from above orbital plane
View from above satellite
View from above satellite

Ground track
Ground track

The orbit data is extracted from the following two-line orbital elements,

1 23343U 94074B   13138.17383833  .00000528  00000-0  85028-4 0  7036
2 23343 098.2058 130.5885 0007888 157.4213 333.2547 14.75701105996836
Epoch (UTC): 18 May 2013 04:10:19
Eccentricity: 0.0007888
inclination: 98.2058°
perigee height: 637 km
apogee height: 648 km
right ascension of ascending node: 130.5885°
argument of perigee: 157.4213°
revolutions per day: 14.75701105
mean anomaly at epoch: 333.2547°
orbit number at epoch: 99683

The dashed part of the orbit path shows where the satellite is in the earth's shadow,  

Developed and maintained by Chris Peat, Heavens-Above GmbH. Please read the updated FAQ before sending e-mail. Imprint. DLR